2020-084A

Last updated on Tue Nov 17 2020 00:02:06 GMT+0000 (Coordinated Universal Time)

1 46920U 20084A 20321.03545203 -.00003814 12059-4 00000+0 0 9992 2 46920 51.6474 317.3392 0015068 357.6938 113.1131 16.27621379 04
UTC large
Height (km)
Speed (km/s)
/
Latitude / Longitude
Inclination (degrees)
Orbital Period (minutes)
Azimuth
Elevation
Range (km)
Doppler Factor

Next 0 passes for location: London (51.5072 / 0.1276)

Sorry there are no passes over London.